Weather History for Altus, OK

Change the Weather History Date:

Thursday, March 21, 2013

  Actual Average (KLTS) Record (KLTS)
Temperature  
Mean Temperature 65 °F -  
Max Temperature 82 °F 64 °F 100 °F (1997)
Min Temperature 48 °F 41 °F 28 °F (2002)
Growing Degree Days 15 (Base 50)    
Moisture  
Dew Point 37 °F    
Average Humidity 43    
Maximum Humidity 69    
Minimum Humidity 18    
Precipitation  
Precipitation 0.00 in - - ()
Sea Level Pressure  
Sea Level Pressure 29.65 in    
Wind  
Wind Speed 15 mph (SE)    
Max Wind Speed 24 mph    
Max Gust Speed 30 mph    
Visibility 10 miles    
Events      
Averages and records for this station are not official NWS values.
T = Trace of Precipitation, MM = Missing Value Source: NWS Daily Summary

Daily Weather History Graph

Daily Weather History Graph

Search for Another Location

Airport:

Trip Planner

Search our weather history database for the weather conditions in past years. The results will help you decide how hot, cold, wet, or windy it might be!

Date:

Astronomy

Mar. 21, 2013 Rise Set
Actual Time 7:39 AM CDT 7:50 PM CDT
Civil Twilight 7:14 AM CDT 8:15 PM CDT
Nautical Twilight 6:44 AM CDT 8:44 PM CDT
Astronomical Twilight 6:14 AM CDT 9:14 PM CDT
Moon 2:32 PM CDT (3/21) 3:50 AM CDT (3/21)
Length of Visible Light 13h 01m
Length of Day
12h 10m
Waxing Gibbous, 69% of the Moon is Illuminated
Mar 21
Waxing Gibbous
Mar 27
Full
Apr 2
Last Quarter
Apr 10
New
Apr 18
First Quarter

Hourly Weather History & Observations

Time (CDT) Temp. Dew Point Humidity Pressure Visibility Wind Dir Wind Speed Gust Speed Precip Events Conditions
12:15 AM 52.3 °F 26.4 °F 37% 29.97 in 10.0 mi SE 16.1 mph - N/A   Clear
12:35 AM 52.7 °F 26.1 °F 36% 29.95 in 10.0 mi SE 15.0 mph 20.7 mph N/A   Clear
1:15 AM 52.7 °F 27.5 °F 38% 29.93 in 10.0 mi SE 16.1 mph - N/A   Clear
1:35 AM 51.8 °F 28.2 °F 40% 29.92 in 10.0 mi SE 17.3 mph - N/A   Clear
1:55 AM 51.3 °F 28.4 °F 41% 29.91 in 10.0 mi SE 15.0 mph - N/A   Clear
2:15 AM 50.9 °F 28.8 °F 43% 29.91 in 10.0 mi SE 15.0 mph - N/A   Clear
2:35 AM 50.5 °F 29.3 °F 44% 29.90 in 10.0 mi SE 15.0 mph - N/A   Clear
2:55 AM 50.4 °F 29.3 °F 44% 29.89 in 10.0 mi SE 15.0 mph - N/A   Clear
3:15 AM 50.2 °F 29.3 °F 45% 29.87 in 10.0 mi SE 12.7 mph - N/A   Clear
3:35 AM 50.0 °F 29.3 °F 45% 29.87 in 10.0 mi SE 13.8 mph - N/A   Clear
3:55 AM 49.6 °F 29.5 °F 46% 29.86 in 10.0 mi SE 15.0 mph - N/A   Clear
4:15 AM 49.5 °F 29.7 °F 47% 29.85 in 10.0 mi SE 13.8 mph - N/A   Clear
4:35 AM 49.1 °F 29.8 °F 47% 29.83 in 10.0 mi SE 15.0 mph - N/A   Clear
4:55 AM 49.1 °F 29.8 °F 47% 29.81 in 10.0 mi SE 15.0 mph - N/A   Clear
5:15 AM 49.1 °F 29.7 °F 47% 29.81 in 10.0 mi SE 12.7 mph - N/A   Clear
5:35 AM 48.7 °F 29.7 °F 48% 29.79 in 10.0 mi SE 13.8 mph - N/A   Clear
5:55 AM 48.6 °F 29.8 °F 48% 29.79 in 10.0 mi SE 13.8 mph - N/A   Clear
6:15 AM 49.1 °F 29.8 °F 47% 29.78 in 10.0 mi SE 15.0 mph - N/A   Scattered Clouds
6:35 AM 50.0 °F 29.8 °F 46% 29.79 in 10.0 mi SE 15.0 mph - N/A   Mostly Cloudy
6:55 AM 50.2 °F 29.8 °F 46% 29.78 in 10.0 mi SE 15.0 mph - N/A   Overcast
7:15 AM 50.0 °F 30.2 °F 47% 29.78 in 10.0 mi SE 13.8 mph - N/A   Overcast
7:35 AM 50.2 °F 30.4 °F 47% 29.77 in 10.0 mi SE 13.8 mph - N/A   Overcast
7:55 AM 50.9 °F 30.9 °F 46% 29.76 in 10.0 mi SE 12.7 mph - N/A   Overcast
8:15 AM 52.5 °F 30.7 °F 43% 29.76 in 10.0 mi SSE 16.1 mph 20.7 mph N/A   Overcast
8:35 AM 53.1 °F 30.4 °F 42% 29.75 in 10.0 mi SSE 18.4 mph - N/A   Overcast
8:55 AM 53.6 °F 30.6 °F 41% 29.75 in 10.0 mi SSE 18.4 mph 23.0 mph N/A   Mostly Cloudy
9:15 AM 54.0 °F 30.7 °F 41% 29.74 in 10.0 mi SSE 20.7 mph 24.2 mph N/A   Scattered Clouds
9:55 AM 55.4 °F 32.0 °F 41% 29.72 in 10.0 mi SSE 20.7 mph 28.8 mph N/A   Overcast
10:15 AM 56.3 °F 32.7 °F 41% 29.72 in 10.0 mi SSE 21.9 mph 26.5 mph N/A   Overcast
10:35 AM 57.2 °F 34.2 °F 42% 29.70 in 10.0 mi SSE 19.6 mph - N/A   Mostly Cloudy
10:55 AM 58.1 °F 35.2 °F 42% 29.70 in 10.0 mi SSE 21.9 mph - N/A   Mostly Cloudy
11:15 AM 59.0 °F 36.5 °F 43% 29.67 in 10.0 mi SSE 24.2 mph - N/A   Mostly Cloudy
11:35 AM 61.3 °F 38.7 °F 43% 29.67 in 10.0 mi SSE 20.7 mph - N/A   Scattered Clouds
11:55 AM 63.0 °F 40.3 °F 43% 29.66 in 10.0 mi South 20.7 mph 26.5 mph N/A   Clear
12:15 PM 64.0 °F 40.6 °F 42% 29.66 in 10.0 mi South 21.9 mph - N/A   Clear
12:35 PM 64.4 °F 41.7 °F 44% 29.63 in 10.0 mi SSE 19.6 mph 24.2 mph N/A   Clear
12:55 PM 65.5 °F 42.4 °F 43% 29.63 in 10.0 mi South 15.0 mph - N/A   Clear
1:15 PM 67.1 °F 43.3 °F 42% 29.62 in 10.0 mi South 16.1 mph 23.0 mph N/A   Clear
1:35 PM 68.5 °F 44.4 °F 42% 29.59 in 10.0 mi South 18.4 mph 21.9 mph N/A   Clear
1:55 PM 69.4 °F 44.6 °F 41% 29.57 in 10.0 mi South 18.4 mph - N/A   Clear
2:15 PM 70.2 °F 45.1 °F 41% 29.55 in 10.0 mi South 16.1 mph 25.3 mph N/A   Clear
2:35 PM 72.7 °F 45.5 °F 38% 29.53 in 10.0 mi South 18.4 mph 21.9 mph N/A   Clear
2:55 PM 74.1 °F 45.9 °F 36% 29.51 in 10.0 mi South 15.0 mph - N/A   Clear
3:15 PM 75.2 °F 46.2 °F 36% 29.50 in 10.0 mi SSE 11.5 mph - N/A   Clear
3:35 PM 77.5 °F 46.4 °F 33% 29.48 in 10.0 mi South 10.4 mph 16.1 mph N/A   Clear
3:55 PM 79.0 °F 46.0 °F 31% 29.47 in 10.0 mi South 11.5 mph 19.6 mph N/A   Clear
4:15 PM 79.2 °F 45.3 °F 30% 29.46 in 10.0 mi SSW 10.4 mph 18.4 mph N/A   Clear
4:35 PM 79.3 °F 45.3 °F 30% 29.46 in 10.0 mi SSW 3.5 mph - N/A   Clear
4:55 PM 81.1 °F 43.5 °F 26% 29.44 in 10.0 mi South 9.2 mph - N/A   Clear
5:15 PM 81.0 °F 40.1 °F 23% 29.44 in 10.0 mi SSW 9.2 mph - N/A   Clear
5:35 PM 82.2 °F 39.9 °F 22% 29.43 in 10.0 mi South 10.4 mph - N/A   Clear
5:55 PM 82.2 °F 36.5 °F 19% 29.44 in 10.0 mi SW 5.8 mph - N/A   Clear
6:15 PM 81.7 °F 33.6 °F 18% 29.45 in 10.0 mi West 9.2 mph - N/A   Clear
6:35 PM 81.7 °F 35.1 °F 19% 29.45 in 10.0 mi SSE 3.5 mph - N/A   Clear
6:55 PM 79.0 °F 45.5 °F 31% 29.44 in 10.0 mi SSE 9.2 mph - N/A   Clear
7:15 PM 76.6 °F 47.5 °F 36% 29.44 in 10.0 mi SE 6.9 mph - N/A   Clear
7:35 PM 74.3 °F 48.0 °F 39% 29.45 in 10.0 mi ESE 15.0 mph - N/A   Clear
7:55 PM 72.9 °F 49.5 °F 44% 29.45 in 10.0 mi ESE 10.4 mph 18.4 mph N/A   Clear
8:15 PM 70.5 °F 49.6 °F 47% 29.45 in 10.0 mi ESE 11.5 mph - N/A   Clear
8:35 PM 68.9 °F 50.2 °F 51% 29.46 in 10.0 mi ESE 15.0 mph - N/A   Clear
8:55 PM 67.8 °F 50.4 °F 54% 29.48 in 10.0 mi East 12.7 mph - N/A   Clear
9:15 PM 65.3 °F 47.7 °F 53% 29.51 in 10.0 mi NE 21.9 mph - N/A   Clear
9:35 PM 58.5 °F 43.3 °F 57% 29.52 in 10.0 mi ENE 23.0 mph - N/A   Clear
9:55 PM 56.1 °F 42.3 °F 60% 29.53 in 10.0 mi ENE 21.9 mph 29.9 mph N/A   Clear
10:15 PM 55.0 °F 42.4 °F 63% 29.54 in 10.0 mi ENE 20.7 mph 28.8 mph N/A   Clear
10:35 PM 54.5 °F 42.8 °F 65% 29.55 in 10.0 mi ENE 17.3 mph 25.3 mph N/A   Clear
10:55 PM 52.7 °F 41.9 °F 67% 29.55 in 10.0 mi ENE 19.6 mph - N/A   Clear
11:15 PM 52.5 °F 42.3 °F 68% 29.57 in 10.0 mi ENE 15.0 mph - N/A   Clear
11:35 PM 50.9 °F 41.0 °F 69% 29.57 in 10.0 mi NE 13.8 mph - N/A   Clear